Location: Chester
(43.2628°N, 72.5951°W)
Time: 01:48:32
(UTC-05:00)

ISS - Pass Details

Date: 01 February 2021
Orbit: 417 x 422 km, 51.6° (Epoch: 07 March)

Event Time Altitude Azimuth Distance (km) Brightness Sun altitude
Rises 17:29:16 0° 302° (WNW) 2,375 0.7 -5.3°
Reaches altitude 10° 17:31:39 10° 317° (NW) 1,510 -0.6 -5.7°
Maximum altitude 17:34:28 24° 14° (NNE) 926 -2.3 -6.2°
Drops below altitude 10° 17:37:18 10° 70° (ENE) 1,508 -1.6 -6.7°
Enters shadow 17:37:33 - 73° (ENE) 1,597 -1.5 -6.8°
